AMX5592 MMGL-MMAA

Flight info

Callsign AMX5592
Flight time 0h 58m
Altitude 35000
Route EMIRI1B EMIRI DCT ZIH J1 AVURO AVURO1B
Aircraft B38M/M-SDE1FGHILORVWXY/HB1

Departure

Time 2026-05-06 00:44
Airport Guadalajara International Airport (MMGL)

Arrival

Time 2026-05-06 01:43
Airport General Juan N. Álvarez International Airport (MMAA)
Time Latitude Longitude Altitude Speed Heading
2026-05-06 00:14 20.52413 -103.30029 5031 ft 0 kts 19°
2026-05-06 00:32 20.52412 -103.30029 5032 ft 0 kts 19°
2026-05-06 00:32 20.52399 -103.30035 5032 ft 2 kts 26°
2026-05-06 00:33 20.52384 -103.30044 5032 ft 2 kts 38°
2026-05-06 00:33 20.52373 -103.30057 5032 ft 2 kts 62°
2026-05-06 00:33 20.52368 -103.30073 5032 ft 2 kts 92°
2026-05-06 00:33 20.52371 -103.30089 5032 ft 1 kts 108°
2026-05-06 00:34 20.52372 -103.30092 5031 ft 0 kts 109°
2026-05-06 00:34 20.52372 -103.30091 5031 ft 0 kts 109°
2026-05-06 00:39 20.52371 -103.30089 5031 ft 1 kts 109°
2026-05-06 00:39 20.52363 -103.30063 5028 ft 6 kts 108°
2026-05-06 00:39 20.52341 -103.30028 5031 ft 5 kts 153°
2026-05-06 00:39 20.52303 -103.30032 5031 ft 6 kts 205°
2026-05-06 00:40 20.52258 -103.30047 5029 ft 8 kts 195°
2026-05-06 00:40 20.52202 -103.30061 5028 ft 9 kts 175°
2026-05-06 00:40 20.52161 -103.30013 5028 ft 10 kts 117°
2026-05-06 00:40 20.52130 -103.29940 5031 ft 11 kts 113°
2026-05-06 00:41 20.52098 -103.29860 5031 ft 12 kts 113°
2026-05-06 00:41 20.52061 -103.29774 5026 ft 13 kts 116°
2026-05-06 00:41 20.52021 -103.29681 5027 ft 14 kts 114°
2026-05-06 00:41 20.51980 -103.29586 5032 ft 12 kts 114°
2026-05-06 00:42 20.51955 -103.29537 5032 ft 6 kts 140°
2026-05-06 00:42 20.51917 -103.29536 5026 ft 6 kts 197°
2026-05-06 00:42 20.51876 -103.29555 5028 ft 7 kts 205°
2026-05-06 00:42 20.51829 -103.29579 5033 ft 7 kts 208°
2026-05-06 00:43 20.51823 -103.29624 5026 ft 7 kts 291°
2026-05-06 00:43 20.51826 -103.29632 5033 ft 0 kts 292°
2026-05-06 00:43 20.51843 -103.29674 5030 ft 31 kts 294°
2026-05-06 00:43 20.52040 -103.30142 5029 ft 104 kts 294°
2026-05-06 00:44 20.52423 -103.31054 5031 ft 161 kts 295°
2026-05-06 00:44 20.52938 -103.32223 5392 ft 181 kts 295°
2026-05-06 00:44 20.53493 -103.33491 5965 ft 198 kts 295°
2026-05-06 00:44 20.54109 -103.34903 6328 ft 218 kts 295°
2026-05-06 00:45 20.54677 -103.36320 6528 ft 207 kts 292°
2026-05-06 00:45 20.55224 -103.37751 6803 ft 208 kts 292°
2026-05-06 00:45 20.55780 -103.39191 7097 ft 212 kts 292°
2026-05-06 00:45 20.56371 -103.40699 7360 ft 230 kts 292°
2026-05-06 00:46 20.57022 -103.42330 7599 ft 242 kts 292°
2026-05-06 00:46 20.57697 -103.44005 7992 ft 248 kts 292°
2026-05-06 00:46 20.58391 -103.45699 8356 ft 254 kts 292°
2026-05-06 00:46 20.59104 -103.47452 8630 ft 262 kts 287°
2026-05-06 00:47 20.59208 -103.49422 8987 ft 277 kts 253°
2026-05-06 00:47 20.58231 -103.51183 9558 ft 283 kts 221°
2026-05-06 00:47 20.56466 -103.52136 10193 ft 291 kts 192°
2026-05-06 00:47 20.54413 -103.52500 10621 ft 308 kts 194°
2026-05-06 00:48 20.52306 -103.53089 11084 ft 322 kts 197°
2026-05-06 00:48 20.50100 -103.53798 11609 ft 334 kts 198°
2026-05-06 00:48 20.47883 -103.54562 12182 ft 345 kts 199°
2026-05-06 00:48 20.45548 -103.55394 12838 ft 352 kts 199°
2026-05-06 00:49 20.43238 -103.56226 13613 ft 355 kts 198°
2026-05-06 00:49 20.40788 -103.56647 14332 ft 359 kts 179°
2026-05-06 00:49 20.38311 -103.56156 15078 ft 363 kts 160°
2026-05-06 00:49 20.36132 -103.54824 15787 ft 369 kts 141°
2026-05-06 00:50 20.34425 -103.52739 16522 ft 373 kts 122°
2026-05-06 00:50 20.33185 -103.50336 17202 ft 377 kts 120°
2026-05-06 00:50 20.31923 -103.47848 17871 ft 379 kts 120°
2026-05-06 00:50 20.30683 -103.45369 18506 ft 382 kts 120°
2026-05-06 00:51 20.29435 -103.42852 19140 ft 385 kts 119°
2026-05-06 00:51 20.28179 -103.40306 19745 ft 388 kts 120°
2026-05-06 00:51 20.26924 -103.37757 20327 ft 391 kts 120°
2026-05-06 00:51 20.25663 -103.35198 20855 ft 394 kts 120°
2026-05-06 00:52 20.24379 -103.32590 21413 ft 396 kts 120°
2026-05-06 00:52 20.23090 -103.29976 21928 ft 399 kts 120°
2026-05-06 00:52 20.21806 -103.27371 22436 ft 401 kts 120°
2026-05-06 00:52 20.20494 -103.24712 22879 ft 405 kts 120°
2026-05-06 00:53 20.19174 -103.22036 23065 ft 407 kts 120°
2026-05-06 00:53 20.17869 -103.19394 23105 ft 406 kts 120°
2026-05-06 00:53 20.16552 -103.16726 23104 ft 405 kts 120°
2026-05-06 00:53 20.15238 -103.14067 23098 ft 406 kts 120°
2026-05-06 00:54 20.13923 -103.11409 23102 ft 406 kts 120°
2026-05-06 00:54 20.12487 -103.08837 23451 ft 400 kts 130°
2026-05-06 00:54 20.10489 -103.06792 23927 ft 400 kts 143°
2026-05-06 00:54 20.08282 -103.04969 24224 ft 406 kts 143°
2026-05-06 00:55 20.06005 -103.03134 24626 ft 409 kts 144°
2026-05-06 00:55 20.03724 -103.01323 24993 ft 413 kts 144°
2026-05-06 00:55 20.01389 -102.99491 25375 ft 416 kts 145°
2026-05-06 00:55 19.99061 -102.97673 25710 ft 420 kts 145°
2026-05-06 00:56 19.96754 -102.95770 26067 ft 424 kts 137°
2026-05-06 00:56 19.94889 -102.93278 26478 ft 430 kts 122°
2026-05-06 00:56 19.93606 -102.90407 26798 ft 436 kts 115°
2026-05-06 00:56 19.92406 -102.87432 27139 ft 440 kts 115°
2026-05-06 00:57 19.91221 -102.84415 27471 ft 443 kts 114°
2026-05-06 00:57 19.90050 -102.81384 27797 ft 447 kts 114°
2026-05-06 00:57 19.88873 -102.78306 28123 ft 450 kts 114°
2026-05-06 00:57 19.87688 -102.75198 28452 ft 454 kts 114°
2026-05-06 00:58 19.86503 -102.72090 28778 ft 457 kts 114°
2026-05-06 00:58 19.85302 -102.68941 29088 ft 460 kts 114°
2026-05-06 00:58 19.84096 -102.65781 29393 ft 463 kts 114°
2026-05-06 00:58 19.82887 -102.62616 29680 ft 467 kts 114°
2026-05-06 00:59 19.81449 -102.59533 29969 ft 466 kts 126°
2026-05-06 00:59 19.79359 -102.56905 30247 ft 465 kts 140°
2026-05-06 00:59 19.76714 -102.54930 30509 ft 464 kts 154°
2026-05-06 00:59 19.73832 -102.53351 30793 ft 466 kts 155°
2026-05-06 01:00 19.70919 -102.51817 31067 ft 469 kts 156°
2026-05-06 01:00 19.67965 -102.50300 31344 ft 471 kts 156°
2026-05-06 01:00 19.65028 -102.48815 31662 ft 472 kts 156°
2026-05-06 01:00 19.62046 -102.47316 32036 ft 472 kts 156°
2026-05-06 01:01 19.59073 -102.45826 32463 ft 471 kts 156°
2026-05-06 01:01 19.56139 -102.44358 32876 ft 470 kts 156°
2026-05-06 01:01 19.53158 -102.42867 33257 ft 470 kts 156°
2026-05-06 01:01 19.50182 -102.41379 33634 ft 470 kts 156°
2026-05-06 01:02 19.47244 -102.39911 34022 ft 469 kts 156°
2026-05-06 01:02 19.44287 -102.38434 34414 ft 468 kts 156°
2026-05-06 01:02 19.41341 -102.36964 34801 ft 467 kts 156°
2026-05-06 01:02 19.38407 -102.35499 35101 ft 468 kts 156°
2026-05-06 01:03 19.35481 -102.34039 35139 ft 466 kts 156°
2026-05-06 01:03 19.29603 -102.31109 35129 ft 464 kts 156°
2026-05-06 01:04 19.23794 -102.28215 35131 ft 464 kts 156°
2026-05-06 01:04 19.17946 -102.25304 35130 ft 463 kts 156°
2026-05-06 01:05 19.12128 -102.22410 35121 ft 463 kts 156°
2026-05-06 01:05 19.06265 -102.19496 35137 ft 463 kts 156°
2026-05-06 01:06 19.00437 -102.16601 35131 ft 463 kts 156°
2026-05-06 01:06 18.94619 -102.13715 35129 ft 462 kts 156°
2026-05-06 01:07 18.88787 -102.10823 35125 ft 462 kts 156°
2026-05-06 01:07 18.82965 -102.07938 35122 ft 462 kts 156°
2026-05-06 01:08 18.77163 -102.05066 35117 ft 461 kts 156°
2026-05-06 01:08 18.71359 -102.02194 35109 ft 461 kts 156°
2026-05-06 01:09 18.66509 -101.99797 35102 ft 461 kts 156°
2026-05-06 01:09 18.60716 -101.96935 35108 ft 460 kts 156°
2026-05-06 01:10 18.54918 -101.94073 35102 ft 460 kts 156°
2026-05-06 01:10 18.49119 -101.91213 35077 ft 460 kts 156°
2026-05-06 01:11 18.43316 -101.88352 35082 ft 460 kts 156°
2026-05-06 01:11 18.37516 -101.85495 35042 ft 459 kts 156°
2026-05-06 01:12 18.31727 -101.82646 34961 ft 459 kts 156°
2026-05-06 01:12 18.25956 -101.79808 34942 ft 460 kts 156°
2026-05-06 01:13 18.20153 -101.76956 34924 ft 459 kts 156°
2026-05-06 01:13 18.14380 -101.74122 34917 ft 459 kts 156°
2026-05-06 01:14 18.05671 -101.69849 34901 ft 459 kts 156°
2026-05-06 01:14 17.99904 -101.67022 34892 ft 459 kts 156°
2026-05-06 01:15 17.94117 -101.64187 34878 ft 460 kts 156°
2026-05-06 01:15 17.88322 -101.61351 34871 ft 460 kts 156°
2026-05-06 01:16 17.82506 -101.58507 34865 ft 460 kts 156°
2026-05-06 01:16 17.76699 -101.55667 34869 ft 460 kts 156°
2026-05-06 01:17 17.70921 -101.52845 34859 ft 460 kts 156°
2026-05-06 01:17 17.65113 -101.50010 34874 ft 460 kts 156°
2026-05-06 01:18 17.62295 -101.48342 34858 ft 462 kts 144°
2026-05-06 01:18 17.60015 -101.46005 34871 ft 464 kts 128°
2026-05-06 01:18 17.56757 -101.40127 34866 ft 469 kts 120°
2026-05-06 01:19 17.53727 -101.34041 34870 ft 469 kts 119°
2026-05-06 01:19 17.50772 -101.27972 34869 ft 469 kts 118°
2026-05-06 01:20 17.47815 -101.21884 34870 ft 469 kts 118°
2026-05-06 01:20 17.44854 -101.15790 34870 ft 469 kts 118°
2026-05-06 01:21 17.43381 -101.12761 34431 ft 463 kts 118°
2026-05-06 01:21 17.41918 -101.09756 33535 ft 467 kts 119°
2026-05-06 01:21 17.40435 -101.06708 32590 ft 471 kts 118°
2026-05-06 01:21 17.38939 -101.03637 31747 ft 472 kts 118°
2026-05-06 01:22 17.37445 -101.00568 30902 ft 472 kts 118°
2026-05-06 01:22 17.35966 -100.97536 30015 ft 473 kts 118°
2026-05-06 01:22 17.34472 -100.94472 29048 ft 474 kts 118°
2026-05-06 01:22 17.32967 -100.91388 28070 ft 475 kts 117°
2026-05-06 01:23 17.31459 -100.88299 27156 ft 475 kts 117°
2026-05-06 01:23 17.29970 -100.85252 26423 ft 470 kts 117°
2026-05-06 01:23 17.28475 -100.82192 25669 ft 466 kts 117°
2026-05-06 01:23 17.27013 -100.79201 24936 ft 461 kts 117°
2026-05-06 01:24 17.25559 -100.76227 24202 ft 457 kts 117°
2026-05-06 01:24 17.24111 -100.73269 23478 ft 452 kts 117°
2026-05-06 01:24 17.22694 -100.70372 22743 ft 448 kts 117°
2026-05-06 01:24 17.21272 -100.67471 21882 ft 448 kts 117°
2026-05-06 01:25 17.19857 -100.64582 21228 ft 441 kts 117°
2026-05-06 01:25 17.18475 -100.61763 20557 ft 436 kts 117°
2026-05-06 01:25 17.17086 -100.58932 19867 ft 431 kts 116°
2026-05-06 01:25 17.15721 -100.56149 19184 ft 427 kts 116°
2026-05-06 01:26 17.14375 -100.53407 18517 ft 423 kts 116°
2026-05-06 01:26 17.13035 -100.50679 17960 ft 416 kts 116°
2026-05-06 01:26 17.11731 -100.48023 17352 ft 411 kts 116°
2026-05-06 01:26 17.10422 -100.45360 16716 ft 408 kts 116°
2026-05-06 01:27 17.09132 -100.42736 16081 ft 405 kts 116°
2026-05-06 01:27 17.07856 -100.40142 15452 ft 402 kts 116°
2026-05-06 01:27 17.06582 -100.37552 14831 ft 400 kts 116°
2026-05-06 01:27 17.05307 -100.34961 14216 ft 397 kts 116°
2026-05-06 01:28 17.04050 -100.32408 13616 ft 395 kts 116°
2026-05-06 01:28 17.02793 -100.29856 13020 ft 393 kts 116°
2026-05-06 01:28 17.01555 -100.27344 12439 ft 390 kts 116°
2026-05-06 01:28 17.00310 -100.24820 11954 ft 386 kts 116°
2026-05-06 01:29 16.99153 -100.22347 11696 ft 374 kts 109°
2026-05-06 01:29 16.98349 -100.19806 11490 ft 362 kts 107°
2026-05-06 01:29 16.97588 -100.17352 11307 ft 351 kts 107°
2026-05-06 01:29 16.96841 -100.14947 11130 ft 341 kts 107°
2026-05-06 01:30 16.96124 -100.12639 10959 ft 331 kts 107°
2026-05-06 01:30 16.95419 -100.10372 10795 ft 322 kts 107°
2026-05-06 01:30 16.94756 -100.08238 10630 ft 314 kts 107°
2026-05-06 01:30 16.94097 -100.06118 10476 ft 305 kts 107°
2026-05-06 01:31 16.93446 -100.04025 10331 ft 296 kts 107°
2026-05-06 01:31 16.92817 -100.02005 10186 ft 287 kts 107°
2026-05-06 01:31 16.92213 -100.00065 10019 ft 281 kts 108°
2026-05-06 01:31 16.91610 -99.98130 9709 ft 279 kts 108°
2026-05-06 01:32 16.91008 -99.96197 9400 ft 277 kts 108°
2026-05-06 01:32 16.90414 -99.94288 9094 ft 276 kts 108°
2026-05-06 01:32 16.89810 -99.92351 8789 ft 282 kts 108°
2026-05-06 01:32 16.89200 -99.90399 8474 ft 287 kts 108°
2026-05-06 01:33 16.88580 -99.88411 8171 ft 288 kts 108°
2026-05-06 01:33 16.87964 -99.86436 7860 ft 288 kts 108°
2026-05-06 01:33 16.87340 -99.84438 7549 ft 287 kts 108°
2026-05-06 01:33 16.86724 -99.82466 7236 ft 285 kts 109°
2026-05-06 01:34 16.86111 -99.80502 6972 ft 282 kts 109°
2026-05-06 01:34 16.85509 -99.78581 6682 ft 279 kts 109°
2026-05-06 01:34 16.84904 -99.76648 6425 ft 276 kts 109°
2026-05-06 01:34 16.84310 -99.74745 6186 ft 278 kts 109°
2026-05-06 01:35 16.83707 -99.72822 5922 ft 278 kts 109°
2026-05-06 01:35 16.83114 -99.70922 5646 ft 276 kts 109°
2026-05-06 01:35 16.82523 -99.69036 5403 ft 270 kts 109°
2026-05-06 01:35 16.81938 -99.67176 5148 ft 268 kts 109°
2026-05-06 01:36 16.81370 -99.65360 4940 ft 257 kts 109°
2026-05-06 01:36 16.80829 -99.63635 4732 ft 244 kts 109°
2026-05-06 01:36 16.80313 -99.61992 4518 ft 234 kts 109°
2026-05-06 01:36 16.79818 -99.60412 4300 ft 220 kts 109°
2026-05-06 01:37 16.79364 -99.58967 4118 ft 199 kts 109°
2026-05-06 01:37 16.78811 -99.57685 3955 ft 191 kts 131°
2026-05-06 01:37 16.77744 -99.56922 3774 ft 185 kts 165°
2026-05-06 01:37 16.76500 -99.56860 3602 ft 179 kts 193°
2026-05-06 01:38 16.75292 -99.57138 3360 ft 176 kts 195°
2026-05-06 01:38 16.74119 -99.57461 3081 ft 173 kts 199°
2026-05-06 01:38 16.72972 -99.57841 2845 ft 166 kts 200°
2026-05-06 01:38 16.71968 -99.58267 2670 ft 146 kts 220°
2026-05-06 01:39 16.71496 -99.59135 2558 ft 146 kts 262°
2026-05-06 01:39 16.71436 -99.60216 2443 ft 152 kts 268°
2026-05-06 01:39 16.71504 -99.61330 2292 ft 155 kts 277°
2026-05-06 01:39 16.71711 -99.62433 2127 ft 153 kts 283°
2026-05-06 01:40 16.71997 -99.63488 1940 ft 152 kts 286°
2026-05-06 01:40 16.72321 -99.64541 1746 ft 151 kts 287°
2026-05-06 01:40 16.72644 -99.65571 1564 ft 151 kts 287°
2026-05-06 01:40 16.72943 -99.66619 1377 ft 151 kts 286°
2026-05-06 01:41 16.73262 -99.67665 1255 ft 152 kts 287°
2026-05-06 01:41 16.73594 -99.68733 1036 ft 155 kts 290°
2026-05-06 01:41 16.73943 -99.69793 804 ft 152 kts 288°
2026-05-06 01:41 16.74268 -99.70822 576 ft 150 kts 290°
2026-05-06 01:42 16.74589 -99.71842 389 ft 149 kts 287°
2026-05-06 01:42 16.74924 -99.72884 171 ft 152 kts 287°
2026-05-06 01:42 16.75251 -99.73908 31 ft 141 kts 288°
2026-05-06 01:42 16.75518 -99.74777 27 ft 105 kts 288°
2026-05-06 01:43 16.75686 -99.75301 25 ft 64 kts 288°
2026-05-06 01:43 16.75778 -99.75591 27 ft 14 kts 289°
2026-05-06 01:43 16.75782 -99.75604 26 ft 3 kts 291°
2026-05-06 01:43 16.75792 -99.75639 26 ft 8 kts 287°
2026-05-06 01:44 16.75821 -99.75738 27 ft 19 kts 287°
2026-05-06 01:44 16.75852 -99.75831 26 ft 21 kts 291°
2026-05-06 01:44 16.75900 -99.75981 26 ft 23 kts 288°
2026-05-06 01:44 16.75951 -99.76144 24 ft 22 kts 289°
2026-05-06 01:45 16.76001 -99.76246 23 ft 11 kts 339°
2026-05-06 01:45 16.76081 -99.76268 25 ft 13 kts
2026-05-06 01:45 16.76146 -99.76244 27 ft 11 kts 37°
2026-05-06 01:45 16.76158 -99.76168 23 ft 13 kts 108°
2026-05-06 01:46 16.76128 -99.76070 25 ft 16 kts 108°
2026-05-06 01:46 16.76091 -99.75953 24 ft 18 kts 109°
2026-05-06 01:46 16.76056 -99.75845 25 ft 11 kts 107°
2026-05-06 01:46 16.76068 -99.75789 24 ft 9 kts 54°
2026-05-06 01:47 16.76085 -99.75719 24 ft 12 kts 99°
2026-05-06 01:47 16.76061 -99.75635 24 ft 12 kts 107°
2026-05-06 01:47 16.76040 -99.75560 23 ft 10 kts 92°
2026-05-06 01:47 16.76071 -99.75511 25 ft 7 kts 33°
2026-05-06 01:48 16.76108 -99.75497 25 ft 3 kts 18°
2026-05-06 01:48 16.76123 -99.75492 23 ft 1 kts 18°
2026-05-06 01:48 16.76125 -99.75491 23 ft 0 kts 18°